| time (UTC) | temp F | wind direction | speed MPH | gust MPH | rain 1hr in | rain 24hr in | rain mn in | humidity % | barometer mb |
| 20260504223027 | 58 | 137 | 5.0 | 12.0 | 0.00 | 0.00 | 0.00 | 61 | 1009.9 |
| 20260504221527 | 57 | 131 | 4.0 | 13.0 | 0.00 | 0.00 | 0.00 | 61 | 1009.9 |
| 20260504220026 | 57 | 203 | 4.0 | 14.0 | 0.00 | 0.00 | 0.00 | 61 | 1010.0 |
| 20260504214559 | 58 | 203 | 4.0 | 13.0 | 0.00 | 0.00 | 0.00 | 60 | 1010.1 |
| 20260504213055 | 57 | 203 | 5.0 | 13.0 | 0.00 | 0.00 | 0.00 | 61 | 1010.3 |
| 20260504211552 | 57 | 350 | 7.0 | 14.0 | 0.00 | 0.00 | 0.00 | 61 | 1010.2 |
| 20260504210053 | 58 | 203 | 6.0 | 13.0 | 0.00 | 0.00 | 0.00 | 59 | 1010.3 |
| 20260504204549 | 58 | 122 | 6.0 | 15.0 | 0.00 | 0.00 | 0.00 | 59 | 1010.1 |
| 20260504203059 | 57 | 203 | 7.0 | 14.0 | 0.00 | 0.00 | 0.00 | 59 | 1010.0 |
| 20260504201515 | 58 | 203 | 6.0 | 14.0 | 0.00 | 0.00 | 0.00 | 58 | 1010.2 |
| 20260504200013 | 58 | 203 | 7.0 | 14.0 | 0.00 | 0.00 | 0.00 | 58 | 1010.3 |
| 20260504194507 | 58 | 134 | 5.0 | 15.0 | 0.00 | 0.00 | 0.00 | 58 | 1010.4 |
| 20260504193008 | 59 | 203 | 6.0 | 17.0 | 0.00 | 0.00 | 0.00 | 57 | 1010.4 |
| 20260504191504 | 60 | 131 | 3.0 | 11.0 | 0.00 | 0.00 | 0.00 | 55 | 1010.9 |
| 20260504190002 | 61 | 21 | 2.0 | 11.0 | 0.00 | 0.00 | 0.00 | 55 | 1011.1 |
| 20260504184558 | 61 | 126 | 6.0 | 12.0 | 0.00 | 0.00 | 0.00 | 53 | 1011.1 |
| 20260504183102 | 65 | 203 | 2.0 | 11.0 | 0.00 | 0.00 | 0.00 | 46 | 1011.3 |
| 20260504181557 | 67 | 203 | 3.0 | 10.0 | 0.00 | 0.00 | 0.00 | 39 | 1011.5 |
| 20260504180051 | 70 | 203 | 2.0 | 15.0 | 0.00 | 0.00 | 0.00 | 26 | 1011.5 |
| 20260504174519 | 70 | 203 | 3.0 | 15.0 | 0.00 | 0.00 | 0.00 | 26 | 1011.7 |
| 20260504173019 | 69 | 203 | 6.0 | 15.0 | 0.00 | 0.00 | 0.00 | 25 | 1011.8 |
| 20260504171513 | 69 | 203 | 5.0 | 18.0 | 0.00 | 0.00 | 0.00 | 25 | 1012.0 |
| 20260504160108 | 67 | 203 | 6.0 | 15.0 | 0.00 | 0.00 | 0.00 | 25 | 1013.0 |
| 20260504081540 | 51 | 203 | 5.0 | 9.0 | 0.00 | 0.00 | 0.00 | 46 | 1014.4 |
| 20260504044552 | 52 | 203 | 4.0 | 10.0 | 0.00 | 0.00 | 0.00 | 38 | 1013.6 |
| 20260504043051 | 52 | 203 | 4.0 | 7.0 | 0.00 | 0.00 | 0.00 | 38 | 1013.5 |
| 20260504041549 | 52 | 203 | 3.0 | 7.0 | 0.00 | 0.00 | 0.00 | 38 | 1013.4 |
| 20260504040051 | 53 | 203 | 3.0 | 7.0 | 0.00 | 0.00 | 0.00 | 37 | 1013.4 |
| 20260504034544 | 53 | 203 | 3.0 | 7.0 | 0.00 | 0.00 | 0.00 | 36 | 1013.2 |
| 20260504033041 | 53 | 203 | 5.0 | 8.0 | 0.00 | 0.00 | 0.00 | 34 | 1013.2 |
| 20260504031544 | 54 | 203 | 4.0 | 10.0 | 0.00 | 0.00 | 0.00 | 34 | 1013.1 |
| 20260504030040 | 54 | 203 | 3.0 | 7.0 | 0.00 | 0.00 | 0.00 | 33 | 1013.0 |
| 20260504024551 | 55 | 203 | 4.0 | 7.0 | 0.00 | 0.00 | 0.00 | 31 | 1013.1 |
| 20260504023038 | 55 | 203 | 3.0 | 8.0 | 0.00 | 0.00 | 0.00 | 32 | 1013.1 |
| 20260504021537 | 54 | 203 | 3.0 | 8.0 | 0.00 | 0.00 | 0.00 | 31 | 1013.1 |
| 20260504020042 | 54 | 203 | 3.0 | 6.0 | 0.00 | 0.00 | 0.00 | 31 | 1013.1 |
| 20260504014536 | 55 | 203 | 3.0 | 6.0 | 0.00 | 0.00 | 0.00 | 30 | 1013.0 |
| 20260504013006 | 55 | 203 | 3.0 | 5.0 | 0.00 | 0.00 | 0.00 | 28 | 1012.9 |
| 20260504011502 | 56 | 203 | 3.0 | 5.0 | 0.00 | 0.00 | 0.00 | 27 | 1012.7 |
| 20260504010031 | 56 | 203 | 4.0 | 7.0 | 0.00 | 0.00 | 0.00 | 26 | 1012.5 |
| 20260504004531 | 56 | 203 | 2.0 | 5.0 | 0.00 | 0.00 | 0.00 | 27 | 1012.3 |
| 20260504003038 | 57 | 203 | 2.0 | 4.0 | 0.00 | 0.00 | 0.00 | 27 | 1012.1 |
| 20260504001530 | 58 | 203 | 1.0 | 6.0 | 0.00 | 0.00 | 0.00 | 28 | 1011.9 |
| 20260504000051 | 58 | 203 | 2.0 | 5.0 | 0.00 | 0.00 | 0.00 | 26 | 1011.7 |
| 20260503234528 | 59 | 203 | 2.0 | 8.0 | 0.00 | 0.00 | 0.00 | 25 | 1011.6 |
| 20260503233025 | 59 | 203 | 3.0 | 8.0 | 0.00 | 0.00 | 0.00 | 25 | 1011.4 |
| 20260503231525 | 59 | 203 | 4.0 | 10.0 | 0.00 | 0.00 | 0.00 | 22 | 1011.3 |
| 20260503230024 | 59 | 203 | 5.0 | 13.0 | 0.00 | 0.00 | 0.00 | 23 | 1011.3 |
| 20260503224524 | 60 | 203 | 2.0 | 13.0 | 0.00 | 0.00 | 0.00 | 22 | 1011.0 |